Location: Stendal
(52.5994°N, 11.8400°E)
Time: 17:33:39
(UTC+01:00)

Envisat - Pass Details

Date: 05 October 2022
Orbit: 763 x 765 km, 98.2° (Epoch: 30 November)

Event Time Altitude Azimuth Distance (km) Brightness Sun altitude
Rises 06:20:45 0° 11° (NNE) 3,248 6.5 -9.9°
Reaches altitude 10° 06:23:06 10° 7° (N) 2,317 5.7 -9.5°
Maximum altitude 06:28:03 53° 292° (WNW) 937 3.2 -8.8°
Drops below altitude 10° 06:32:58 10° 216° (SW) 2,300 5.1 -8.0°
Sets 06:35:18 0° 212° (SSW) 3,222 5.9 -7.7°
